TimeCDT,TemperatureF,Dew PointF,Humidity,Sea Level PressureIn,VisibilityMPH,Wind Direction,Wind SpeedMPH,Gust SpeedMPH,PrecipitationIn,Events,Conditions,WindDirDegrees,DateUTC
7:35 AM,77.5,61.5,58,30.05,10.0,Calm,Calm,-,N/A,,Clear,0,2013-07-09 12:35:00
7:55 AM,80.2,61.2,52,30.05,10.0,WSW,8.1,-,N/A,,Clear,240,2013-07-09 12:55:00
8:15 AM,82.8,60.8,47,30.05,10.0,WSW,15.0,-,N/A,,Clear,240,2013-07-09 13:15:00
8:35 AM,84.7,60.8,44,30.06,10.0,WSW,17.3,23.0,N/A,,Clear,250,2013-07-09 13:35:00
8:55 AM,85.6,61.0,43,30.07,10.0,WSW,16.1,-,N/A,,Clear,250,2013-07-09 13:55:00
9:15 AM,87.6,61.2,41,30.07,10.0,WSW,13.8,-,N/A,,Clear,240,2013-07-09 14:15:00
9:35 AM,89.4,60.8,38,30.07,10.0,WSW,17.3,-,N/A,,Clear,240,2013-07-09 14:35:00
9:55 AM,90.7,60.4,36,30.07,10.0,WSW,16.1,19.6,N/A,,Clear,250,2013-07-09 14:55:00
10:15 AM,91.9,60.8,35,30.06,10.0,WSW,12.7,-,N/A,,Clear,250,2013-07-09 15:15:00
10:35 AM,92.8,60.8,34,30.06,10.0,WSW,12.7,-,N/A,,Clear,240,2013-07-09 15:35:00
10:55 AM,94.8,61.0,32,30.06,10.0,WSW,16.1,20.7,N/A,,Clear,250,2013-07-09 15:55:00
11:15 AM,95.4,60.4,31,30.06,10.0,WSW,10.4,-,N/A,,Clear,250,2013-07-09 16:15:00
11:35 AM,96.3,59.9,30,30.06,10.0,WSW,15.0,19.6,N/A,,Clear,240,2013-07-09 16:35:00
11:55 AM,97.7,59.4,28,30.06,10.0,WSW,12.7,-,N/A,,Clear,250,2013-07-09 16:55:00
12:15 PM,97.0,58.8,28,30.06,10.0,WSW,12.7,17.3,N/A,,Clear,240,2013-07-09 17:15:00
12:35 PM,99.1,59.0,26,30.05,10.0,SSW,13.8,21.9,N/A,,Clear,210,2013-07-09 17:35:00
12:55 PM,98.4,58.5,26,30.05,10.0,SW,12.7,23.0,N/A,,Clear,230,2013-07-09 17:55:00
1:15 PM,99.0,58.1,26,30.04,10.0,SW,12.7,18.4,N/A,,Clear,220,2013-07-09 18:15:00
1:35 PM,99.5,58.3,25,30.03,10.0,SSW,11.5,17.3,N/A,,Clear,210,2013-07-09 18:35:00
1:55 PM,99.5,58.1,25,30.03,10.0,SW,13.8,19.6,N/A,,Scattered Clouds,220,2013-07-09 18:55:00
2:15 PM,100.6,57.9,24,30.03,10.0,SSW,9.2,19.6,N/A,,Scattered Clouds,210,2013-07-09 19:15:00
2:35 PM,100.6,57.6,24,30.02,10.0,SSW,15.0,23.0,N/A,,Scattered Clouds,210,2013-07-09 19:35:00
2:55 PM,99.9,57.4,24,30.02,10.0,WSW,11.5,19.6,N/A,,Scattered Clouds,240,2013-07-09 19:55:00
3:15 PM,100.8,57.6,24,30.01,10.0,SW,18.4,23.0,N/A,,Scattered Clouds,220,2013-07-09 20:15:00
3:35 PM,101.3,57.9,24,30.00,10.0,South,16.1,24.2,N/A,,Scattered Clouds,190,2013-07-09 20:35:00
3:55 PM,99.9,57.0,24,30.00,10.0,SSW,12.7,23.0,N/A,,Scattered Clouds,200,2013-07-09 20:55:00
4:15 PM,101.3,57.2,23,29.99,10.0,South,13.8,21.9,N/A,,Scattered Clouds,190,2013-07-09 21:15:00
4:35 PM,100.8,56.7,23,29.99,10.0,SSW,12.7,20.7,N/A,,Mostly Cloudy,200,2013-07-09 21:35:00
4:55 PM,101.8,56.7,22,29.98,10.0,South,10.4,-,N/A,,Scattered Clouds,190,2013-07-09 21:55:00
5:15 PM,101.8,56.5,22,29.98,10.0,South,10.4,26.5,N/A,,Scattered Clouds,180,2013-07-09 22:15:00
5:35 PM,101.5,56.3,22,29.97,10.0,South,12.7,19.6,N/A,,Scattered Clouds,180,2013-07-09 22:35:00
5:55 PM,101.1,55.8,22,29.96,10.0,South,16.1,21.9,N/A,,Scattered Clouds,190,2013-07-09 22:55:00
6:15 PM,101.3,55.6,22,29.96,10.0,SSW,9.2,21.9,N/A,,Scattered Clouds,200,2013-07-09 23:15:00
6:35 PM,100.8,55.2,22,29.95,10.0,SSW,15.0,20.7,N/A,,Scattered Clouds,210,2013-07-09 23:35:00
6:55 PM,100.4,55.4,22,29.96,10.0,SW,13.8,18.4,N/A,,Scattered Clouds,220,2013-07-09 23:55:00
7:15 PM,99.5,54.9,22,29.95,10.0,SSW,12.7,17.3,N/A,,Clear,210,2013-07-10 00:15:00
7:35 PM,99.0,55.4,23,29.96,10.0,South,10.4,21.9,N/A,,Clear,180,2013-07-10 00:35:00
7:55 PM,98.4,55.4,24,29.96,10.0,SSW,10.4,-,N/A,,Clear,200,2013-07-10 00:55:00
8:15 PM,97.7,55.6,24,29.96,10.0,South,11.5,18.4,N/A,,Clear,190,2013-07-10 01:15:00
8:35 PM,95.9,55.4,26,29.97,10.0,South,11.5,-,N/A,,Clear,190,2013-07-10 01:35:00
8:55 PM,95.4,56.1,27,29.98,10.0,SSW,11.5,-,N/A,,Clear,200,2013-07-10 01:55:00
9:15 PM,93.7,55.6,28,29.98,10.0,South,10.4,-,N/A,,Clear,190,2013-07-10 02:15:00
9:35 PM,92.7,55.8,29,29.98,10.0,South,10.4,-,N/A,,Clear,180,2013-07-10 02:35:00
9:55 PM,91.6,55.8,30,29.99,10.0,South,9.2,-,N/A,,Clear,180,2013-07-10 02:55:00
10:15 PM,91.0,55.8,30,30.01,10.0,South,11.5,-,N/A,,Clear,180,2013-07-10 03:15:00
10:35 PM,90.5,55.8,31,30.01,10.0,South,11.5,-,N/A,,Clear,180,2013-07-10 03:35:00
10:55 PM,90.5,55.9,31,30.02,10.0,South,12.7,-,N/A,,Clear,190,2013-07-10 03:55:00
11:15 PM,90.5,56.3,31,30.01,10.0,South,11.5,-,N/A,,Clear,190,2013-07-10 04:15:00
11:35 PM,90.5,56.1,31,30.02,10.0,South,13.8,-,N/A,,Clear,190,2013-07-10 04:35:00
11:55 PM,89.1,56.1,33,30.02,10.0,South,16.1,-,N/A,,Clear,190,2013-07-10 04:55:00